Weather History for Poplar Bluff, MO

Change the Weather History Date:

Sunday, April 28, 2013

  Actual Average Record
Temperature  
Mean Temperature 58 °F -  
Max Temperature 66 °F 74 °F 88 °F (1952)
Min Temperature 53 °F 49 °F 32 °F (1928)
Degree Days  
Heating Degree Days 6    
Growing Degree Days 8 (Base 50)    
Moisture  
Dew Point 52 °F    
Average Humidity 81    
Maximum Humidity 94    
Minimum Humidity 61    
Precipitation  
Precipitation 0.00 in - - ()
Sea Level Pressure  
Sea Level Pressure 29.95 in    
Wind  
Wind Speed 5 mph (West)    
Max Wind Speed 12 mph    
Max Gust Speed -    
Visibility 10 miles    
Events      
Averages and records for this station are not official NWS values.
T = Trace of Precipitation, MM = Missing Value Source: NWS Daily Summary

Daily Weather History Graph

Daily Weather History Graph

Search for Another Location

Airport:

Trip Planner

Search our weather history database for the weather conditions in past years. The results will help you decide how hot, cold, wet, or windy it might be!

Date:

Astronomy

Apr. 28, 2013 Rise Set
Actual Time 6:10 AM CDT 7:47 PM CDT
Civil Twilight 5:42 AM CDT 8:15 PM CDT
Nautical Twilight 5:09 AM CDT 8:48 PM CDT
Astronomical Twilight 4:34 AM CDT 9:23 PM CDT
Moon 11:15 PM CDT (4/28) 8:30 AM CDT (4/28)
Length of Visible Light 14h 32m
Length of Day
13h 37m
Waning Gibbous, 88% of the Moon is Illuminated
Apr 28
Waning Gibbous
May 2
Last Quarter
May 9
New
May 17
First Quarter
May 24
Full

Hourly Weather History & Observations

Time (CDT) Temp. Dew Point Humidity Pressure Visibility Wind Dir Wind Speed Gust Speed Precip Events Conditions
12:46 AM 53.6 °F 51.8 °F 94% 29.94 in 10.0 mi WNW 4.6 mph - N/A   Mostly Cloudy
12:53 AM 54.0 °F 52.0 °F 93% 29.94 in 10.0 mi WNW 5.8 mph - N/A   Mostly Cloudy
1:53 AM 55.0 °F 52.0 °F 89% 29.95 in 10.0 mi WSW 3.5 mph - N/A   Overcast
2:37 AM 55.4 °F 51.8 °F 88% 29.93 in 10.0 mi West 5.8 mph - N/A   Overcast
2:53 AM 55.0 °F 52.0 °F 89% 29.93 in 10.0 mi West 3.5 mph - N/A   Overcast
3:53 AM 55.0 °F 51.1 °F 86% 29.93 in 10.0 mi Calm Calm - N/A   Overcast
4:53 AM 54.0 °F 51.1 °F 90% 29.92 in 10.0 mi NW 3.5 mph - N/A   Overcast
5:18 AM 53.6 °F 50.0 °F 88% 29.93 in 10.0 mi West 4.6 mph - N/A   Overcast
5:36 AM 53.6 °F 50.0 °F 88% 29.93 in 10.0 mi WNW 4.6 mph - N/A   Overcast
5:53 AM 54.0 °F 50.0 °F 86% 29.93 in 10.0 mi WNW 3.5 mph - N/A   Overcast
6:39 AM 53.6 °F 50.0 °F 88% 29.94 in 10.0 mi NW 5.8 mph - N/A   Overcast
6:53 AM 54.0 °F 51.1 °F 90% 29.95 in 10.0 mi WNW 6.9 mph - N/A   Overcast
7:36 AM 55.4 °F 51.8 °F 88% 29.96 in 10.0 mi WNW 4.6 mph - N/A   Overcast
8:53 AM 55.9 °F 51.1 °F 84% 29.97 in 10.0 mi West 5.8 mph - N/A   Overcast
9:53 AM 57.0 °F 51.1 °F 81% 29.98 in 10.0 mi WNW 5.8 mph - N/A   Overcast
10:53 AM 59.0 °F 51.1 °F 75% 29.97 in 10.0 mi West 8.1 mph - N/A   Overcast
11:53 AM 61.0 °F 52.0 °F 72% 29.97 in 10.0 mi WNW 11.5 mph - N/A   Overcast
12:17 PM 62.6 °F 51.8 °F 68% 29.97 in 10.0 mi WNW 8.1 mph - N/A   Overcast
12:25 PM 62.6 °F 51.8 °F 68% 29.96 in 10.0 mi NW 10.4 mph - N/A   Overcast
12:53 PM 62.1 °F 52.0 °F 70% 29.96 in 10.0 mi NNW 8.1 mph - N/A   Overcast
1:53 PM 61.0 °F 52.0 °F 72% 29.97 in 10.0 mi WNW 4.6 mph - N/A   Overcast
2:24 PM 64.4 °F 51.8 °F 64% 29.96 in 10.0 mi North 5.8 mph - N/A   Mostly Cloudy
2:53 PM 64.0 °F 52.0 °F 65% 29.95 in 10.0 mi NW 4.6 mph - N/A   Partly Cloudy
4:53 PM 64.9 °F 51.1 °F 61% 29.93 in 10.0 mi Calm Calm - N/A   Overcast
5:53 PM 64.0 °F 53.1 °F 67% 29.94 in 10.0 mi South 5.8 mph - N/A   Overcast
6:53 PM 63.0 °F 53.1 °F 70% 29.93 in 10.0 mi SSE 4.6 mph - N/A   Partly Cloudy
7:53 PM 61.0 °F 53.1 °F 75% 29.93 in 10.0 mi SSE 3.5 mph - N/A   Clear
8:53 PM 59.0 °F 54.0 °F 83% 29.94 in 10.0 mi South 3.5 mph - N/A   Clear
9:53 PM 57.9 °F 54.0 °F 87% 29.95 in 10.0 mi South 4.6 mph - N/A   Clear
10:53 PM 55.9 °F 53.1 °F 90% 29.95 in 10.0 mi SSW 3.5 mph - N/A   Clear
11:53 PM 54.0 °F 52.0 °F 93% 29.94 in 10.0 mi Calm Calm - N/A   Clear